Time,TemperatureF,DewpointF,PressureIn,WindDirection,WindDirectionDegrees,WindSpeedMPH,WindSpeedGustMPH,Humidity,HourlyPrecipIn,Conditions,Clouds,dailyrainin,SoftwareType,DateUTC
2013-08-03 18:30:00,80.6,73.1,29.98,East,89,0.0,11.0,78,-0.54,,,0.54,Weather View 32 v70,2013-08-03 23:30:00,
2013-08-03 18:31:00,80.5,73.0,29.98,ESE,109,7.0,11.0,78,0.00,,,0.54,Weather View 32 v70,2013-08-03 23:31:00,
2013-08-03 18:32:00,80.5,73.0,29.98,ESE,109,5.0,11.0,78,0.00,,,0.54,Weather View 32 v70,2013-08-03 23:32:00,
2013-08-03 18:37:00,80.5,73.0,29.98,ESE,108,0.0,11.0,78,0.00,,,0.54,Weather View 32 v70,2013-08-03 23:37:00,
2013-08-03 18:42:00,80.4,72.9,29.98,ESE,102,4.0,9.0,78,0.00,,,0.54,Weather View 32 v70,2013-08-03 23:42:00,
2013-08-03 18:47:00,80.5,73.0,29.98,ESE,104,0.0,9.0,78,0.00,,,0.54,Weather View 32 v70,2013-08-03 23:47:00,
2013-08-03 18:52:00,80.6,73.1,29.98,ESE,104,4.0,9.0,78,0.00,,,0.54,Weather View 32 v70,2013-08-03 23:52:00,
2013-08-03 18:57:00,80.7,73.2,29.98,ESE,102,0.0,9.0,78,0.00,,,0.54,Weather View 32 v70,2013-08-03 23:57:00,
2013-08-03 19:02:00,80.9,73.4,29.98,ESE,105,3.0,9.0,78,0.00,,,0.54,Weather View 32 v70,2013-08-04 00:02:00,
2013-08-03 19:09:00,80.9,73.4,29.98,East,96,0.0,9.0,78,0.00,,,0.54,Weather View 32 v70,2013-08-04 00:09:00,
2013-08-03 19:10:00,80.9,73.4,29.98,East,95,0.0,9.0,78,0.00,,,0.54,Weather View 32 v70,2013-08-04 00:10:00,
2013-08-03 19:11:00,80.9,73.4,29.98,East,95,0.0,9.0,78,0.00,,,0.54,Weather View 32 v70,2013-08-04 00:11:00,
2013-08-03 19:12:00,80.9,73.4,29.98,East,95,0.0,9.0,78,0.00,,,0.54,Weather View 32 v70,2013-08-04 00:12:00,
2013-08-03 19:13:00,81.0,73.5,29.98,East,95,0.0,9.0,78,0.00,,,0.54,Weather View 32 v70,2013-08-04 00:13:00,
2013-08-03 19:14:00,81.0,73.5,29.98,East,95,0.0,9.0,78,0.00,,,0.54,Weather View 32 v70,2013-08-04 00:14:00,
2013-08-03 19:30:00,81.1,73.6,29.98,East,96,0.0,9.0,78,0.00,,,0.54,Weather View 32 v70,2013-08-04 00:30:00,
2013-08-03 19:35:00,81.1,73.6,29.98,East,97,0.0,9.0,78,0.00,,,0.54,Weather View 32 v70,2013-08-04 00:35:00,
2013-08-03 19:47:00,81.0,73.5,29.98,East,95,0.0,9.0,78,0.00,,,0.54,Weather View 32 v70,2013-08-04 00:47:00,
2013-08-03 19:52:00,81.0,73.8,29.98,East,97,0.0,9.0,79,0.00,,,0.54,Weather View 32 v70,2013-08-04 00:52:00,
2013-08-03 19:57:00,80.9,73.7,29.98,East,98,3.0,9.0,79,0.00,,,0.54,Weather View 32 v70,2013-08-04 00:57:00,
2013-08-03 20:02:00,80.7,73.5,29.98,East,98,0.0,8.0,79,0.00,,,0.54,Weather View 32 v70,2013-08-04 01:02:00,
2013-08-03 20:07:00,80.6,73.8,29.98,East,98,0.0,8.0,80,0.00,,,0.54,Weather View 32 v70,2013-08-04 01:07:00,
2013-08-03 20:12:00,80.6,73.8,29.99,East,98,0.0,8.0,80,0.00,,,0.54,Weather View 32 v70,2013-08-04 01:12:00,
2013-08-03 20:17:00,80.5,73.7,29.99,East,98,0.0,8.0,80,0.00,,,0.54,Weather View 32 v70,2013-08-04 01:17:00,
2013-08-03 20:22:00,80.4,74.0,29.99,East,98,0.0,8.0,81,0.00,,,0.54,Weather View 32 v70,2013-08-04 01:22:00,
2013-08-03 20:27:00,80.3,73.9,29.99,East,98,0.0,8.0,81,0.00,,,0.54,Weather View 32 v70,2013-08-04 01:27:00,
2013-08-03 20:32:00,80.3,73.9,29.99,East,98,0.0,8.0,81,0.00,,,0.54,Weather View 32 v70,2013-08-04 01:32:00,
2013-08-03 20:42:00,80.3,73.9,29.99,East,98,0.0,8.0,81,0.00,,,0.54,Weather View 32 v70,2013-08-04 01:42:00,
2013-08-03 20:47:00,80.1,73.7,30.00,East,98,0.0,8.0,81,0.00,,,0.54,Weather View 32 v70,2013-08-04 01:47:00,
2013-08-03 20:52:00,80.0,74.0,30.01,East,98,0.0,8.0,82,0.00,,,0.54,Weather View 32 v70,2013-08-04 01:52:00,
2013-08-03 20:57:00,79.9,73.9,30.01,East,98,0.0,5.0,82,0.00,,,0.54,Weather View 32 v70,2013-08-04 01:57:00,
2013-08-03 21:02:00,79.8,73.8,30.01,East,98,0.0,1.0,82,0.00,,,0.54,Weather View 32 v70,2013-08-04 02:02:00,
2013-08-03 21:07:00,79.8,74.2,30.01,East,98,0.0,1.0,83,0.00,,,0.54,Weather View 32 v70,2013-08-04 02:07:00,
2013-08-03 21:12:00,79.6,74.0,30.00,East,98,0.0,1.0,83,0.00,,,0.54,Weather View 32 v70,2013-08-04 02:12:00,
2013-08-03 21:17:00,79.6,74.0,30.01,East,98,0.0,1.0,83,0.00,,,0.54,Weather View 32 v70,2013-08-04 02:17:00,
2013-08-03 21:22:00,79.5,73.9,30.01,East,98,0.0,1.0,83,0.00,,,0.54,Weather View 32 v70,2013-08-04 02:22:00,
2013-08-03 21:27:00,79.4,74.1,30.01,East,98,0.0,1.0,84,0.00,,,0.54,Weather View 32 v70,2013-08-04 02:27:00,
2013-08-03 21:32:00,79.4,74.1,30.01,East,98,0.0,1.0,84,0.00,,,0.54,Weather View 32 v70,2013-08-04 02:32:00,
2013-08-03 21:37:00,79.4,74.1,30.01,East,98,0.0,1.0,84,0.00,,,0.54,Weather View 32 v70,2013-08-04 02:37:00,
2013-08-03 21:42:00,79.3,74.0,30.02,East,98,0.0,1.0,84,0.00,,,0.54,Weather View 32 v70,2013-08-04 02:42:00,
2013-08-03 21:47:00,79.3,74.0,30.02,East,97,0.0,1.0,84,0.00,,,0.54,Weather View 32 v70,2013-08-04 02:47:00,
2013-08-03 21:52:00,79.3,74.0,30.02,East,98,0.0,3.0,84,0.00,,,0.54,Weather View 32 v70,2013-08-04 02:52:00,
2013-08-03 21:57:00,79.2,73.9,30.02,East,98,3.0,5.0,84,0.00,,,0.54,Weather View 32 v70,2013-08-04 02:57:00,
2013-08-03 22:02:00,79.2,73.9,30.02,East,98,0.0,6.0,84,0.00,,,0.54,Weather View 32 v70,2013-08-04 03:02:00,
2013-08-03 22:03:00,79.2,73.9,30.03,East,97,0.0,6.0,84,0.00,,,0.54,Weather View 32 v70,2013-08-04 03:03:00,
2013-08-03 22:08:00,79.2,73.9,30.02,East,98,0.0,6.0,84,0.00,,,0.54,Weather View 32 v70,2013-08-04 03:08:00,
2013-08-03 22:13:00,79.2,73.9,30.03,East,98,0.0,6.0,84,0.00,,,0.54,Weather View 32 v70,2013-08-04 03:13:00,
2013-08-03 22:18:00,79.2,73.9,30.03,East,98,0.0,6.0,84,0.00,,,0.54,Weather View 32 v70,2013-08-04 03:18:00,
2013-08-03 22:23:00,79.3,74.0,30.03,East,98,0.0,6.0,84,0.00,,,0.54,Weather View 32 v70,2013-08-04 03:23:00,
2013-08-03 22:28:00,79.3,74.0,30.03,East,98,0.0,6.0,84,0.00,,,0.54,Weather View 32 v70,2013-08-04 03:28:00,
2013-08-03 22:33:00,79.4,74.1,30.03,East,98,0.0,6.0,84,0.00,,,0.54,Weather View 32 v70,2013-08-04 03:33:00,
2013-08-03 22:38:00,79.4,74.1,30.04,East,98,0.0,6.0,84,0.00,,,0.54,Weather View 32 v70,2013-08-04 03:38:00,
2013-08-03 22:43:00,79.4,73.8,30.04,East,98,0.0,6.0,83,0.00,,,0.54,Weather View 32 v70,2013-08-04 03:43:00,
2013-08-03 22:48:00,79.5,73.9,30.04,East,98,5.0,6.0,83,0.00,,,0.54,Weather View 32 v70,2013-08-04 03:48:00,
2013-08-03 22:53:00,79.5,73.9,30.04,ESE,102,0.0,9.0,83,0.00,,,0.54,Weather View 32 v70,2013-08-04 03:53:00,
2013-08-03 22:58:00,79.5,73.9,30.04,ESE,103,3.0,9.0,83,0.00,,,0.54,Weather View 32 v70,2013-08-04 03:58:00,
2013-08-03 23:01:00,79.5,73.9,30.04,ESE,103,0.0,9.0,83,0.00,,,0.54,Weather View 32 v70,2013-08-04 04:01:00,
2013-08-03 23:06:00,79.5,73.9,30.04,ESE,102,0.0,9.0,83,0.00,,,0.54,Weather View 32 v70,2013-08-04 04:06:00,
2013-08-03 23:11:00,79.5,73.9,30.04,ESE,103,2.0,9.0,83,0.00,,,0.54,Weather View 32 v70,2013-08-04 04:11:00,
2013-08-03 23:16:00,79.4,73.8,30.04,ESE,103,0.0,9.0,83,0.00,,,0.54,Weather View 32 v70,2013-08-04 04:16:00,
2013-08-03 23:21:00,79.5,73.9,30.04,ESE,103,0.0,9.0,83,0.00,,,0.54,Weather View 32 v70,2013-08-04 04:21:00,
2013-08-03 23:26:00,79.4,73.8,30.04,ESE,103,0.0,9.0,83,0.00,,,0.54,Weather View 32 v70,2013-08-04 04:26:00,
2013-08-03 23:31:00,79.5,73.9,30.04,ESE,103,0.0,9.0,83,0.00,,,0.54,Weather View 32 v70,2013-08-04 04:31:00,
2013-08-03 23:36:00,79.4,73.8,30.04,ESE,106,0.0,9.0,83,0.00,,,0.54,Weather View 32 v70,2013-08-04 04:36:00,
2013-08-03 23:41:00,79.4,73.8,30.04,ESE,106,0.0,9.0,83,0.00,,,0.54,Weather View 32 v70,2013-08-04 04:41:00,
2013-08-03 23:46:00,79.3,73.7,30.04,ESE,106,0.0,9.0,83,0.00,,,0.54,Weather View 32 v70,2013-08-04 04:46:00,
2013-08-03 23:51:00,79.3,73.7,30.04,ESE,106,0.0,9.0,83,0.00,,,0.54,Weather View 32 v70,2013-08-04 04:51:00,
2013-08-03 23:56:00,79.3,73.7,30.04,ESE,106,0.0,7.0,83,0.00,,,0.54,Weather View 32 v70,2013-08-04 04:56:00,